アトラス彗星

C/2020 M3 ( ATLAS )

English version
Home page
Updated on August 1, 2021

---------------------------------------------------------------------

・ プロフィール

発見日 2020年6月27日
発見光度 18.8等
発見者 Asteroid Terrestrial-Impact Last Alert System (ATLAS) search program

・ 写真集

・ 軌道要素

Epoch 2020 Nov. 7.0 TT = JDT 2459160.5
T 2020 Oct. 25.62319 TT                                 Rudenko
q   1.2682458            (2000.0)            P               Q
n   0.00709611     Peri.  328.44555     +0.72843765     -0.57193492
a  26.8198178      Node    71.25029     +0.68169348     +0.55013883
e   0.9527124      Incl.   23.47345     +0.06835631     +0.60847163
P 139
From 2146 observations 2020 June 27-2021 Apr. 2, mean residual 0".5.

・ 星図

・ 光度変化

        m1 = 14.5 + 5 logΔ + 10.0 log r          [   ,-62]  (              〜2020年 8月24日)
        m1 =  8.3 + 5 logΔ + 15.0 log r(t - 10)  [-62,   ]  (2020年 8月24日〜              )

---------------------------------------------------------------------

軌道要素はM.P.E.C. 2021-J28に掲載されたものです。
星図はステラナビゲータ Ver.10 (アストロアーツ) で作成したものです。
光度グラフはComet for Windowsで作成したものです。

---------------------------------------------------------------------

Copyright(C) Seiichi Yoshida (comet@aerith.net). All rights reserved.